DW0487 Weather Reports


time (UTC)temp
F
wind
direction
speed
knots
gust
knots
rain 1hr
in
rain 24hr
in
rain mn
in
humidity
%
barometer
mb
20260507143026 54 24 5.2 11.3 0.00 0.26 0.12 70 1013.0
20260507141521 56 57 5.2 8.7 0.00 0.26 0.12 67 1012.9
20260507140021 56 22 3.5 7.8 0.00 0.26 0.12 68 1012.7
20260507134519 55 65 3.5 9.6 0.00 0.26 0.12 68 1012.8
20260507133024 55 34 5.2 7.8 0.00 0.26 0.12 71 1013.0
20260507131519 55 46 3.5 8.7 0.00 0.26 0.12 70 1013.0
20260507130017 56 9 7.0 11.3 0.00 0.26 0.12 71 1012.9
20260507124520 56 42 4.3 8.7 0.01 0.26 0.12 72 1013.0
20260507123019 54 31 4.3 8.7 0.01 0.26 0.12 75 1012.9
20260507121515 53 33 1.7 4.3 0.01 0.26 0.12 77 1012.9
20260507120014 52 5 0.9 3.5 0.01 0.26 0.12 75 1012.8
20260507114515 52 340 0.0 5.2 0.01 0.25 0.11 72 1013.0
20260507113034 52 59 2.6 5.2 0.01 0.25 0.11 79 1012.9
20260507111513 51 65 0.9 5.2 0.04 0.25 0.11 82 1013.1
20260507110015 51 36 2.6 5.2 0.04 0.25 0.11 78 1013.0
20260507104513 52 28 4.3 12.2 0.03 0.24 0.10 82 1012.6
20260507103012 52 26 6.1 9.6 0.03 0.24 0.10 87 1012.6
20260507101514 53 13 6.1 11.3 0.00 0.21 0.07 77 1012.5
20260507100006 54 331 10.4 15.6 0.00 0.21 0.07 74 1012.1
20260507094506 53 337 7.0 12.2 0.00 0.21 0.07 74 1012.3
20260507093004 56 29 7.0 12.2 0.00 0.21 0.07 70 1012.1
20260507091501 56 72 3.5 7.0 0.00 0.21 0.07 68 1012.1
20260507090057 56 55 1.7 5.2 0.00 0.21 0.07 68 1012.1
20260507084604 54 203 1.7 4.3 0.00 0.21 0.07 68 1012.1
20260507083049 53 148 1.7 3.5 0.00 0.21 0.07 76 1012.1
20260507081552 50 308 0.9 2.6 0.01 0.21 0.07 83 1012.1
20260507080044 49 311 0.0 2.6 0.02 0.21 0.07 91 1012.0
20260507074538 47 82 0.9 3.5 0.05 0.21 0.07 91 1012.1
20260507073034 46 226 1.7 5.2 0.05 0.21 0.07 91 1011.9
20260507071531 47 280 0.0 5.2 0.04 0.20 0.06 93 1011.9
20260507070030 47 88 3.5 5.2 0.02 0.19 0.05 94 1011.7
20260507064527 46 78 0.0 0.0 0.00 0.17 0.02 94 1011.6
20260507063027 46 78 0.0 1.7 0.00 0.17 0.02 94 1011.4
20260507061521 46 31 0.0 2.6 0.00 0.17 0.02 94 1011.5
20260507060024 46 261 0.0 0.0 0.01 0.17 0.02 94 1011.4
20260507054516 45 302 0.0 1.7 0.01 0.17 0.02 94 1011.3
20260507053014 45 322 0.0 0.0 0.01 0.17 0.02 94 1011.2
20260507051511 45 223 0.0 0.0 0.01 0.17 0.02 94 1011.1
20260507050014 45 209 0.0 2.6 0.00 0.16 0.02 94 1011.1
20260507044509 44 226 0.0 0.0 0.00 0.16 0.02 94 1010.9
20260507043012 44 311 0.0 0.0 0.00 0.16 0.02 94 1010.8
20260507041502 44 310 0.0 1.7 0.00 0.16 0.02 94 1010.5
20260507040001 44 310 0.0 1.7 0.00 0.16 0.02 94 1010.5
20260507034600 44 51 0.0 0.0 0.00 0.16 0.02 94 1010.4
20260507033100 44 82 0.0 1.7 0.00 0.16 0.02 94 1010.4
20260507031559 44 144 0.0 0.9 0.00 0.16 0.02 94 1010.3
20260507030100 44 59 0.0 0.9 0.00 0.16 0.02 94 1010.3
20260507024558 44 33 0.0 2.6 0.00 0.16 0.02 93 1010.1
20260507023109 44 34 1.7 3.5 0.00 0.16 0.02 93 1010.2
20260507021555 44 355 1.7 3.5 0.00 0.16 0.02 93 1010.3
20260507020059 45 69 0.9 3.5 0.00 0.16 0.02 94 1010.3
20260507014557 45 113 0.0 2.6 0.00 0.16 0.02 94 1010.1
20260507013054 45 98 0.0 2.6 0.00 0.16 0.02 93 1010.0
20260507011553 45 82 0.0 1.7 0.00 0.16 0.02 93 1010.0
20260507010052 45 333 0.0 1.7 0.01 0.16 0.02 93 1010.2
20260507004551 45 180 0.0 1.7 0.01 0.16 0.02 93 1010.2
20260507003106 45 128 0.0 0.0 0.01 0.16 0.02 93 1009.9
20260507001611 45 128 0.0 1.7 0.01 0.16 0.02 93 1010.2
20260507000050 45 153 0.0 1.7 0.00 0.15 0.01 93 1010.1
20260506234554 45 207 0.0 1.7 0.01 0.15 0.01 92 1010.0
20260506233050 45 337 0.0 2.6 0.01 0.15 0.01 92 1009.9
20260506231549 45 344 0.9 2.6 0.01 0.15 0.01 92 1009.7
20260506230053 45 49 0.9 5.2 0.01 0.15 0.01 92 1009.5
20260506224544 46 24 0.9 3.5 0.01 0.14 0.00 92 1009.4
20260506223042 45 12 1.7 3.5 0.01 0.14 0.00 92 1009.3
20260506221549 46 90 0.0 0.0 0.01 0.14 0.00 92 1009.5
20260506220038 46 134 0.0 0.0 0.01 0.14 0.00 92 1009.7
20260506214537 46 136 1.7 2.6 0.00 0.13 0.13 91 1009.6
20260506213036 46 329 0.0 2.6 0.00 0.13 0.13 91 1009.4
20260506211533 46 319 1.7 4.3 0.00 0.13 0.13 91 1009.2
20260506210047 46 35 2.6 7.0 0.01 0.13 0.13 91 1009.0
20260506204532 46 48 2.6 9.6 0.03 0.13 0.13 90 1008.8
20260506203035 46 25 2.6 7.0 0.09 0.13 0.13 90 1008.7
20260506201530 47 35 2.6 6.1 0.11 0.13 0.13 90 1008.6
20260506200032 47 28 0.9 5.2 0.10 0.13 0.13 89 1008.8
20260506194529 47 76 0.0 1.7 0.07 0.09 0.09 88 1008.8
20260506193034 47 345 1.7 4.3 0.02 0.04 0.04 87 1008.4
20260506191525 47 23 4.3 7.8 0.01 0.02 0.02 87 1007.9
20260506190029 48 44 5.2 8.7 0.02 0.02 0.02 87 1007.7
20260506184534 48 51 3.5 7.0 0.02 0.02 0.02 85 1007.3
20260506183023 49 355 2.6 8.7 0.02 0.02 0.02 83 1007.1
20260506181535 50 15 6.1 11.3 0.02 0.02 0.02 79 1006.7
20260506180122 51 23 7.0 13.9 0.01 0.01 0.01 76 1006.3
20260506174522 52 36 3.5 13.0 0.00 0.00 0.00 75 1006.1
20260506173022 53 72 5.2 10.4 0.00 0.00 0.00 72 1005.3
20260506171521 55 55 8.7 14.8 0.00 0.00 0.00 69 1005.2
20260506170121 57 51 8.7 13.9 0.00 0.00 0.00 65 1004.7
20260506164538 57 23 4.3 11.3 0.00 0.00 0.00 63 1004.4
20260506163019 58 36 3.5 8.7 0.00 0.00 0.00 62 1004.3
20260506161521 59 38 2.6 8.7 0.00 0.00 0.00 62 1004.1
20260506160004 59 36 1.7 7.8 0.00 0.00 0.00 62 1004.0
20260506154504 59 70 0.9 4.3 0.00 0.00 0.00 65 1004.0
20260506153004 58 28 0.0 3.5 0.00 0.00 0.00 66 1003.6
20260506151502 58 310 0.9 5.2 0.00 0.00 0.00 67 1003.6
20260506150003 58 286 0.9 3.5 0.00 0.00 0.00 65 1003.5
20260506144501 58 174 3.5 7.0 0.00 0.00 0.00 69 1003.7